• In Belgium
  • List of Countries
  • For 7 days
  • Water Temperature
  • Satellite Maps
  • Weather Map
  • Weather Widgets
  • user-avatar
    Login

    Hourly Weather Lakewood

    Today, 23 October, Tuesday

    Time Temperature Precipitation Wind Pressure Humidity
    00:00 +8°C° 0 mm 5 mps 743 mmHg 84%
    01:00 +7°C° 0 mm 5 mps 743 mmHg 86%
    02:00 +7°C° 0 mm 5 mps 743 mmHg 87%
    03:00 +7°C° 0 mm 5 mps 743 mmHg 87%
    04:00 +7°C° 0 mm 6 mps 743 mmHg 87%
    05:00 +7°C° 0 mm 6 mps 743 mmHg 87%
    06:00 +7°C° 0 mm 6 mps 743 mmHg 86%
    07:00 +5°C° 0 mm 7 mps 743 mmHg 86%
    08:00 +8°C° 0 mm 7 mps 744 mmHg 80%
    09:00 +9°C° 0 mm 8 mps 744 mmHg 75%
    10:00 +10°C° 0 mm 8 mps 745 mmHg 69%
    11:00 +10°C° 0 mm 8 mps 745 mmHg 66%
    12:00 +10°C° 0 mm 8 mps 746 mmHg 63%
    13:00 +10°C° 0 mm 8 mps 746 mmHg 60%
    14:00 +10°C° 0 mm 7 mps 746 mmHg 61%
    15:00 +9°C° 0 mm 7 mps 746 mmHg 62%
    16:00 +8°C° 0 mm 7 mps 747 mmHg 63%
    17:00 +8°C° 0 mm 7 mps 747 mmHg 63%
    18:00 +8°C° 0 mm 6 mps 747 mmHg 63%
    19:00 +7°C° 0 mm 6 mps 748 mmHg 63%
    20:00 +7°C° 0 mm 6 mps 748 mmHg 64%
    21:00 +5°C° 0 mm 6 mps 748 mmHg 65%
    22:00 +5°C° 0 mm 6 mps 749 mmHg 67%
    23:00 +4°C° 0 mm 6 mps 749 mmHg 67%

    Tomorrow, 24 October, Wednesday

    Time Temperature Precipitation Wind Pressure Humidity
    00:00 +4°C° 0 mm 6 mps 749 mmHg 68%
    01:00 +3°C° 0 mm 6 mps 749 mmHg 69%
    02:00 +3°C° 0 mm 6 mps 749 mmHg 70%
    03:00 +3°C° 0 mm 6 mps 750 mmHg 71%
    04:00 +3°C° 0 mm 6 mps 750 mmHg 72%
    05:00 +3°C° 0 mm 6 mps 750 mmHg 73%
    06:00 +3°C° 0 mm 6 mps 750 mmHg 75%
    07:00 +3°C° 0 mm 6 mps 750 mmHg 76%
    08:00 +3°C° 0 mm 6 mps 751 mmHg 74%
    09:00 +5°C° 0 mm 5 mps 751 mmHg 72%
    10:00 +5°C° 0 mm 5 mps 751 mmHg 70%
    11:00 +6°C° 0 mm 5 mps 751 mmHg 69%
    12:00 +6°C° 0 mm 5 mps 751 mmHg 68%
    13:00 +6°C° 0 mm 5 mps 751 mmHg 67%
    14:00 +6°C° 0 mm 5 mps 751 mmHg 67%
    15:00 +6°C° 0 mm 4 mps 751 mmHg 66%
    16:00 +6°C° 0 mm 4 mps 750 mmHg 66%
    17:00 +5°C° 0 mm 4 mps 750 mmHg 68%
    18:00 +5°C° 0 mm 4 mps 750 mmHg 70%
    19:00 +4°C° 0 mm 4 mps 751 mmHg 72%
    20:00 +4°C° 0 mm 4 mps 751 mmHg 73%
    21:00 +3°C° 0 mm 4 mps 751 mmHg 74%
    22:00 +3°C° 0 mm 4 mps 751 mmHg 75%
    23:00 +3°C° 0 mm 3 mps 751 mmHg 75%

    Day after tomorrow, 25 October, Thursday

    Time Temperature Precipitation Wind Pressure Humidity
    00:00 +3°C° 0 mm 3 mps 751 mmHg 76%
    01:00 +3°C° 0 mm 3 mps 751 mmHg 77%
    02:00 +2°C° 0 mm 3 mps 751 mmHg 78%
    03:00 +2°C° 0 mm 3 mps 751 mmHg 79%
    04:00 +2°C° 0 mm 3 mps 750 mmHg 79%
    05:00 +2°C° 0 mm 2 mps 750 mmHg 80%
    06:00 +2°C° 0 mm 2 mps 750 mmHg 80%
    07:00 +2°C° 0 mm 2 mps 750 mmHg 80%
    08:00 +4°C° 0 mm 2 mps 750 mmHg 74%
    09:00 +5°C° 0 mm 2 mps 750 mmHg 68%
    10:00 +7°C° 0 mm 3 mps 750 mmHg 62%
    11:00 +7°C° 0 mm 2 mps 750 mmHg 59%
    12:00 +8°C° 0 mm 2 mps 749 mmHg 56%
    13:00 +9°C° 0 mm 2 mps 748 mmHg 53%
    14:00 +9°C° 0 mm 2 mps 748 mmHg 54%
    15:00 +9°C° 0 mm 2 mps 748 mmHg 56%
    16:00 +9°C° 0 mm 2 mps 747 mmHg 57%
    17:00 +8°C° 0 mm 2 mps 747 mmHg 61%
    18:00 +7°C° 0 mm 2 mps 747 mmHg 66%
    19:00 +6°C° 0 mm 2 mps 747 mmHg 70%
    20:00 +4°C° 0 mm 3 mps 747 mmHg 71%
    21:00 +4°C° 0 mm 3 mps 746 mmHg 71%
    22:00 +4°C° 0 mm 3 mps 746 mmHg 72%
    23:00 +4°C° 0 mm 3 mps 746 mmHg 71%

    26 October, Friday

    Time Temperature Precipitation Wind Pressure Humidity
    00:00 +4°C° 0 mm 3 mps 746 mmHg 70%
    01:00 +4°C° 0 mm 3 mps 745 mmHg 69%
    02:00 +3°C° 0 mm 3 mps 745 mmHg 68%
    03:00 +3°C° 0 mm 3 mps 745 mmHg 68%
    04:00 +3°C° 0 mm 3 mps 744 mmHg 68%
    05:00 +3°C° 0 mm 3 mps 744 mmHg 68%
    06:00 +3°C° 0 mm 3 mps 744 mmHg 68%
    07:00 +3°C° 0 mm 4 mps 744 mmHg 68%
    08:00 +4°C° 0 mm 4 mps 744 mmHg 66%
    09:00 +5°C° 0 mm 4 mps 744 mmHg 63%
    10:00 +6°C° 0 mm 4 mps 744 mmHg 61%
    11:00 +7°C° 0 mm 4 mps 743 mmHg 59%
    12:00 +8°C° 0 mm 4 mps 743 mmHg 58%
    13:00 +9°C° 0 mm 5 mps 743 mmHg 57%
    14:00 +8°C° 0 mm 4 mps 742 mmHg 60%
    15:00 +8°C° 0 mm 4 mps 742 mmHg 63%
    16:00 +8°C° 0 mm 4 mps 742 mmHg 66%
    17:00 +8°C° 0.1 mm 4 mps 742 mmHg 70%
    18:00 +7°C° 0.1 mm 4 mps 742 mmHg 74%
    19:00 +6°C° 0.1 mm 4 mps 742 mmHg 78%
    20:00 +6°C° 0.1 mm 4 mps 742 mmHg 80%
    21:00 +6°C° 0.1 mm 4 mps 742 mmHg 82%
    22:00 +6°C° 0.1 mm 4 mps 742 mmHg 84%
    23:00 +6°C° 0.1 mm 4 mps 742 mmHg 85%

    27 October, Saturday

    Time Temperature Precipitation Wind Pressure Humidity
    00:00 +5°C° 0.1 mm 4 mps 742 mmHg 85%
    01:00 +5°C° 0.1 mm 4 mps 742 mmHg 86%
    02:00 +5°C° 0 mm 5 mps 742 mmHg 86%
    03:00 +5°C° 0 mm 5 mps 742 mmHg 85%
    04:00 +5°C° 0 mm 5 mps 742 mmHg 85%
    05:00 +5°C° 0 mm 5 mps 742 mmHg 84%
    06:00 +3°C° 0 mm 6 mps 743 mmHg 83%
    07:00 +3°C° 0 mm 6 mps 743 mmHg 83%
    08:00 +4°C° 0 mm 6 mps 743 mmHg 81%
    09:00 +4°C° 0 mm 6 mps 743 mmHg 79%
    10:00 +5°C° 0 mm 7 mps 743 mmHg 77%
    11:00 +5°C° 0.1 mm 6 mps 743 mmHg 75%
    12:00 +7°C° 0.1 mm 6 mps 743 mmHg 74%
    13:00 +7°C° 0.1 mm 6 mps 743 mmHg 72%
    14:00 +7°C° 0.1 mm 6 mps 743 mmHg 73%
    15:00 +7°C° 0.1 mm 5 mps 743 mmHg 74%
    16:00 +7°C° 0.1 mm 5 mps 743 mmHg 76%
    17:00 +7°C° 0.1 mm 5 mps 743 mmHg 77%
    18:00 +7°C° 0.1 mm 5 mps 743 mmHg 78%
    19:00 +6°C° 0.1 mm 5 mps 743 mmHg 79%
    20:00 +6°C° 0.1 mm 5 mps 743 mmHg 80%
    21:00 +6°C° 0.1 mm 5 mps 743 mmHg 81%
    22:00 +5°C° 0.1 mm 5 mps 743 mmHg 82%
    23:00 +5°C° 0 mm 5 mps 743 mmHg 83%

    28 October, Sunday

    Time Temperature Precipitation Wind Pressure Humidity
    00:00 +3°C° 0 mm 5 mps 742 mmHg 85%
    01:00 +4°C° 0 mm 4 mps 742 mmHg 86%
    02:00 +4°C° 0 mm 4 mps 741 mmHg 85%
    03:00 +4°C° 0 mm 4 mps 741 mmHg 85%
    04:00 +4°C° 0 mm 3 mps 741 mmHg 84%
    05:00 +4°C° 0.1 mm 3 mps 741 mmHg 85%
    06:00 +4°C° 0.1 mm 3 mps 740 mmHg 87%
    07:00 +4°C° 0.1 mm 4 mps 740 mmHg 88%
    08:00 +5°C° 0.1 mm 4 mps 740 mmHg 86%
    09:00 +6°C° 0.1 mm 5 mps 740 mmHg 84%
    10:00 +6°C° 0.1 mm 5 mps 740 mmHg 82%
    11:00 +6°C° 0.3 mm 5 mps 739 mmHg 82%
    12:00 +7°C° 0.3 mm 5 mps 739 mmHg 82%
    13:00 +7°C° 0.3 mm 5 mps 738 mmHg 83%
    14:00 +6°C° 0.5 mm 5 mps 738 mmHg 84%
    15:00 +6°C° 0.5 mm 5 mps 738 mmHg 86%
    16:00 +6°C° 0.5 mm 5 mps 738 mmHg 88%
    17:00 +6°C° 0.4 mm 5 mps 738 mmHg 88%
    18:00 +6°C° 0.4 mm 5 mps 738 mmHg 88%
    19:00 +5°C° 0.4 mm 5 mps 738 mmHg 88%
    20:00 +5°C° 0.5 mm 4 mps 738 mmHg 88%
    21:00 +5°C° 0.5 mm 4 mps 738 mmHg 88%
    22:00 +5°C° 0.5 mm 4 mps 738 mmHg 87%
    23:00 +5°C° 0.5 mm 4 mps 738 mmHg 87%

    29 October, Monday

    Time Temperature Precipitation Wind Pressure Humidity
    00:00 +5°C° 0.5 mm 4 mps 738 mmHg 86%
    01:00 +4°C° 0.5 mm 4 mps 738 mmHg 86%
    02:00 +4°C° 0.6 mm 4 mps 738 mmHg 85%
    03:00 +4°C° 0.6 mm 4 mps 739 mmHg 84%
    04:00 +4°C° 0.6 mm 4 mps 739 mmHg 83%
    05:00 +4°C° 0.3 mm 4 mps 739 mmHg 84%
    06:00 +4°C° 0.3 mm 4 mps 739 mmHg 84%
    07:00 +4°C° 0.3 mm 4 mps 739 mmHg 85%
    08:00 +5°C° 0.1 mm 4 mps 740 mmHg 80%
    09:00 +6°C° 0.1 mm 5 mps 740 mmHg 76%
    10:00 +6°C° 0.1 mm 5 mps 741 mmHg 72%
    11:00 +7°C° 0 mm 5 mps 741 mmHg 67%
    12:00 +7°C° 0 mm 5 mps 741 mmHg 62%
    13:00 +8°C° 0 mm 5 mps 741 mmHg 57%
    14:00 +8°C° 0 mm 5 mps 741 mmHg 60%
    15:00 +8°C° 0 mm 5 mps 741 mmHg 62%
    16:00 +8°C° 0 mm 5 mps 741 mmHg 64%
    17:00 +7°C° 0.1 mm 5 mps 742 mmHg 69%
    18:00 +7°C° 0.1 mm 5 mps 742 mmHg 74%
    19:00 +7°C° 0.1 mm 5 mps 742 mmHg 78%
    20:00 +6°C° 0.3 mm 5 mps 743 mmHg 81%
    21:00 +6°C° 0.3 mm 5 mps 743 mmHg 83%
    22:00 +6°C° 0.3 mm 5 mps 743 mmHg 85%
    23:00 +6°C° 0.1 mm 5 mps 743 mmHg 85%
    Show more